STARLINK-3958, 52535

Orbit data source: Space-Track

STARLINK-3958, 52535 is a payload satellite owned by SpaceX/Seattle (US) in LEO that was launched on Fri, 13 May 2022 UTC via an FALCON 9 launch vehicle from the Air Force Western Test Range (AFWTR). Payload-class satellites include a variety of spacecraft equipped with specific instruments for various scientific and technological missions. These include communications satellites like Starlink; space stations such as the ISS; scientific satellites like the Hubble; Earth observation satellites from companies like Planet Labs, Umbra, and HawkEye 360; GPS; miniature CubeSats for education and research; and military/defense satellites.

Loading next visibility...
Identifier
52535, 2022-051C
Orbit
LEO
Country
Flag of USUS
Related business
Manufacturer
SpaceX/Seattle
Mission
Operational Commercial Communications
Bus & Motor
STARLINK, Unknown motor
Mass
297 kg wet, ~275 kg dry
Launch date (UTC)
2022-05-13 (4 years ago)
Launch vehicle
FALCON 9
Launch site
Air Force Western Test Range (AFWTR)
Object type
Payload
Rocket body
Debris
Shape & HBR
Box + 1 Pan, 10.1 m
Radar Cross Section
13.562 m², Large (>1 m²)

Expand to show TLE details & history
Last TLE update: 2 days ago

TLE from 2 days ago
0 STARLINK-3958
1 52535U 22051C   26171.31595897 -.00002359  00000-0 -13018-3 0  9991
2 52535  53.1609  28.2982 0001163  93.9874 266.1250 15.08830251226935
Epoch: 2026-06-20T07:34Z
TLE epoch observation values (Epoch: 2026-06-20T07:34:58.855Z)
Latitude
-0.00003°
Longitude
6.02061°
Altitude
540.719 km
Speed
7.593 km/s
True Right ascension
01h 53m 11s
True Declination
0° 00' 00"
Sunlit
Object was in daylight at epoch
Visualization orbit readout
Latitude
Unknown
Longitude
Unknown
Altitude
Unknown
Speed
Unknown
Apparent Right ascension
Unknown
Apparent Declination
Unknown
Sunlit
N/A
Visualization observer readout
Local Sidereal Time
21:33:22
Azimuth
Unknown
Elevation
Unknown
Doppler factor
Unknown
Orbital elements
Apogee altitude
540.832 km
Perigee altitude
539.223 km
Semi-major axis
6,918.164 km
Eccentricity
0.00012
Inclination
53.1609°
RAAN
28.2982°
Arg. of periapsis
93.9874°
True anomaly
266.1117°
Mean anomaly
266.125°
Eccentric anomaly
266.11835°
Mean motion
3.77187 °/min
Orbital period
95.44 mins
BSTAR
-0.00013018
Loading maneuver chart data...
Computing Atmospheric mass density...
Loading historical data...
Loading historical data...
Loading historical data...
Loading historical data...
Loading historical data...
Loading historical data...
Loading historical data...

Documentation

Showing up to 5 results
|